Date String (YYYY-MM-DD hh:mm:ss) UTC,Instrument flags,Ambient pressure (hPa),Sample flow (lpm),Bypass flow (lpm),Sample temperature (°C),Ambient temperature (°C),ASC tube jacket temperature (°C),LED temperature (°C),Box temperature (°C),Sample RH (%),Span deviation,Mass concentration (μg/m³),Mass concentration (μg/m³),Mass concentration (μg/m³)
DateTimeUTC,F1_M11,P_M11,Q1_M11,Q2_M11,T1_M11,T2_M11,T3_M11,T4_M11,T5_M11,U1_M11,ZSPAN_M11,X2_M11,X0_M11,X1_M11
2022-04-11 08:00:00,,0818.6,4.99,0.00,22.0,22.2,00.0,30.8,24.0,06.1,0000.0,0004.06,0014.19,0002.28
2022-04-11 08:01:00,,0818.6,5.00,0.00,22.2,22.9,00.0,30.9,24.2,06.1,0000.0,0004.11,0012.76,0002.28
2022-04-11 08:02:00,,0818.6,5.00,0.00,22.3,23.0,00.0,30.9,24.3,06.1,0000.0,0004.16,0012.48,0002.29
2022-04-11 08:03:00,,0818.6,5.00,0.00,22.3,22.7,00.0,31.0,24.3,06.1,0000.0,0004.18,0012.96,0002.28
2022-04-11 08:04:00,,0818.6,4.99,0.00,22.3,22.5,00.0,31.0,24.2,06.1,0000.0,0004.14,0013.05,0002.26
2022-04-11 08:05:00,,0818.5,5.01,0.00,22.3,22.3,00.0,31.0,24.2,06.2,0000.0,0004.11,0012.83,0002.24
2022-04-11 08:06:00,,0818.5,5.01,0.00,22.3,22.2,00.0,31.0,24.2,06.2,0000.0,0004.10,0013.22,0002.23
2022-04-11 08:07:00,,0818.5,5.00,0.00,22.3,22.0,00.0,31.1,24.1,06.1,0000.0,0004.18,0013.86,0002.23
2022-04-11 08:08:00,,0818.5,4.99,0.00,22.3,21.9,00.0,31.1,24.1,06.2,0000.0,0004.18,0013.87,0002.23
2022-04-11 08:09:00,,0818.5,5.00,0.00,22.3,21.8,00.0,31.1,24.1,06.2,0000.0,0004.17,0013.94,0002.23
2022-04-11 08:10:00,,0818.4,5.00,0.00,22.3,21.8,00.0,31.1,24.1,06.3,0000.0,0004.21,0014.08,0002.26
2022-04-11 08:11:00,,0818.4,5.02,0.00,22.3,21.7,00.0,31.1,24.1,06.2,0000.0,0004.22,0013.95,0002.28
2022-04-11 08:12:00,,0818.4,5.00,0.00,22.3,21.7,00.0,31.1,24.1,06.1,0000.0,0004.15,0013.36,0002.28
2022-04-11 08:13:00,,0818.4,5.00,0.00,22.3,21.6,00.0,31.2,24.1,06.1,0000.0,0004.15,0012.58,0002.28
2022-04-11 08:14:00,,0818.4,5.00,0.00,22.3,21.6,00.0,31.2,24.1,06.2,0000.0,0004.18,0012.24,0002.28
2022-04-11 08:15:00,,0818.3,4.99,0.00,22.3,21.6,00.0,31.2,24.1,06.1,0000.0,0004.23,0012.72,0002.29
2022-04-11 08:16:00,,0818.3,5.00,0.00,22.3,21.6,00.0,31.2,24.1,06.2,0000.0,0004.23,0012.94,0002.30
2022-04-11 08:17:00,,0818.4,5.00,0.00,22.3,21.5,00.0,31.2,24.1,06.4,0000.0,0004.28,0012.38,0002.34
2022-04-11 08:18:00,,0818.3,4.99,0.00,22.3,21.5,00.0,31.2,24.1,06.4,0000.0,0004.22,0011.67,0002.36
2022-04-11 08:19:00,,0818.3,5.00,0.00,22.3,21.5,00.0,31.2,24.1,06.5,0000.0,0004.19,0011.22,0002.37
2022-04-11 08:20:00,,0818.3,5.00,0.00,22.3,21.5,00.0,31.2,24.1,06.4,0000.0,0004.19,0011.04,0002.37
2022-04-11 08:21:00,,0818.3,5.00,0.00,22.3,21.5,00.0,31.2,24.0,06.2,0000.0,0004.14,0011.46,0002.35
2022-04-11 08:22:00,,0818.3,5.00,0.00,22.3,21.5,00.0,31.2,24.1,06.2,0000.0,0004.12,0011.74,0002.34
2022-04-11 08:23:00,,0818.3,5.00,0.00,22.2,21.4,00.0,31.2,24.1,06.1,0000.0,0004.12,0012.22,0002.35
2022-04-11 08:24:00,,0818.3,5.01,0.00,22.2,21.4,00.0,31.2,24.0,06.1,0000.0,0004.13,0012.25,0002.36
2022-04-11 08:25:00,,0818.2,5.02,0.00,22.2,21.4,00.0,31.2,24.0,06.0,0000.0,0004.10,0012.04,0002.36
2022-04-11 08:26:00,,0818.2,4.99,0.00,22.2,21.4,00.0,31.2,24.0,05.9,0000.0,0004.07,0012.08,0002.37
2022-04-11 08:27:00,,0818.2,5.00,0.00,22.2,21.4,00.0,31.2,24.0,06.0,0000.0,0003.98,0012.28,0002.35
2022-04-11 08:28:00,,0818.2,5.00,0.00,22.2,21.4,00.0,31.2,24.0,05.9,0000.0,0003.96,0012.36,0002.33
2022-04-11 08:29:00,,0818.1,5.00,0.00,22.2,21.4,00.0,31.2,24.0,05.8,0000.0,0003.92,0012.84,0002.30
2022-04-11 08:30:00,,0818.1,5.00,0.00,22.2,21.3,00.0,31.2,23.9,05.8,0000.0,0003.95,0012.95,0002.28
2022-04-11 08:31:00,,0818.1,5.00,0.00,22.2,21.3,00.0,31.1,23.9,05.7,0000.0,0003.99,0013.07,0002.27
2022-04-11 08:32:00,,0818.1,5.02,0.00,22.2,21.3,00.0,31.1,23.9,05.7,0000.0,0004.06,0012.89,0002.27
2022-04-11 08:33:00,,0818.1,5.01,0.00,22.2,21.3,00.0,31.1,24.0,05.7,0000.0,0004.14,0012.89,0002.28
2022-04-11 08:34:00,,0818.0,4.99,0.00,22.2,21.3,00.0,31.1,24.0,05.6,0000.0,0004.20,0012.52,0002.26
2022-04-11 08:35:00,,0818.0,4.99,0.00,22.2,21.3,00.0,31.1,24.0,05.6,0000.0,0004.20,0012.87,0002.24
2022-04-11 08:36:00,,0818.1,5.00,0.00,22.2,21.3,00.0,31.1,24.0,05.6,0000.0,0004.21,0013.36,0002.22
2022-04-11 08:37:00,,0818.1,5.00,0.00,22.2,21.3,00.0,31.1,24.0,05.7,0000.0,0004.28,0013.76,0002.21
2022-04-11 08:38:00,,0818.1,5.00,0.00,22.2,21.3,00.0,31.1,24.0,05.8,0000.0,0004.36,0013.48,0002.22
2022-04-11 08:39:00,,0818.1,5.00,0.00,22.2,21.3,00.0,31.1,24.0,05.8,0000.0,0004.34,0013.74,0002.20
2022-04-11 08:40:00,,0818.1,5.00,0.00,22.2,21.3,00.0,31.1,24.0,06.3,0000.0,0004.35,0013.20,0002.21
2022-04-11 08:41:00,,0818.1,5.00,0.00,22.2,21.3,00.0,31.1,23.9,06.6,0000.0,0004.36,0013.62,0002.22
2022-04-11 08:42:00,,0818.1,5.00,0.00,22.2,21.3,00.0,31.1,23.9,06.5,0000.0,0004.35,0013.89,0002.23
2022-04-11 08:43:00,,0818.1,5.01,0.00,22.1,21.3,00.0,31.1,23.9,06.4,0000.0,0004.33,0013.73,0002.23
2022-04-11 08:44:00,,0818.1,5.00,0.00,22.1,21.3,00.0,31.1,23.9,06.4,0000.0,0004.27,0013.50,0002.22
2022-04-11 08:45:00,,0818.1,5.01,0.00,22.2,21.5,00.0,31.1,23.9,06.4,0000.0,0004.23,0013.49,0002.22
2022-04-11 08:46:00,,0818.1,5.01,0.00,22.3,22.3,00.0,31.2,24.2,06.3,0000.0,0004.19,0013.47,0002.21
2022-04-11 08:47:00,,0818.1,5.00,0.00,22.4,22.9,00.0,31.2,24.4,06.2,0000.0,0004.24,0013.45,0002.23
2022-04-11 08:48:00,,0818.0,5.00,0.00,22.5,22.9,00.0,31.2,24.5,06.1,0000.0,0004.22,0012.91,0002.22
2022-04-11 08:49:00,,0818.0,4.99,0.00,22.5,22.7,00.0,31.2,24.4,06.0,0000.0,0004.23,0012.75,0002.21
2022-04-11 08:50:00,,0818.0,5.01,0.00,22.5,22.5,00.0,31.3,24.4,06.0,0000.0,0004.31,0013.96,0002.23
2022-04-11 08:51:00,,0818.0,5.00,0.00,22.5,22.3,00.0,31.3,24.4,05.9,0000.0,0004.34,0014.06,0002.23
2022-04-11 08:52:00,,0818.0,5.00,0.00,22.5,22.2,00.0,31.3,24.4,05.8,0000.0,0004.29,0013.52,0002.22
2022-04-11 08:53:00,,0818.0,5.00,0.00,22.5,22.1,00.0,31.3,24.3,05.8,0000.0,0004.25,0012.99,0002.20
2022-04-11 08:54:00,,0818.0,5.00,0.00,22.5,22.0,00.0,31.3,24.4,05.8,0000.0,0004.23,0012.61,0002.18
2022-04-11 08:55:00,,0818.0,4.99,0.00,22.5,21.9,00.0,31.3,24.3,05.8,0000.0,0004.25,0012.36,0002.19
2022-04-11 08:56:00,,0818.0,5.00,0.00,22.5,21.8,00.0,31.3,24.3,05.8,0000.0,0004.23,0012.32,0002.20
2022-04-11 08:57:00,,0818.0,5.00,0.00,22.5,21.8,00.0,31.3,24.3,05.8,0000.0,0004.19,0012.67,0002.20
2022-04-11 08:58:00,,0818.0,5.01,0.00,22.5,21.7,00.0,31.3,24.3,05.8,0000.0,0004.16,0012.71,0002.20
2022-04-11 08:59:00,,0818.0,4.99,0.00,22.5,21.7,00.0,31.4,24.3,05.8,0000.0,0004.13,0012.65,0002.19
